Location: Anton
(37.3520°N, 87.3947°W)
Time: 17:07:11
(UTC+00:00)

Hubble Space Telescope - Pass Details

Date: 08 December 2022
Orbit: 529 x 532 km, 28.5° (Epoch: 07 February)

Event Time Altitude Azimuth Distance (km) Brightness Sun altitude
Exits shadow 11:21:42 - 217° (SW) 1,937 3.4 -17.3°
Reaches altitude 10° 11:22:19 10° 212° (SSW) 1,761 3.2 -17.2°
Maximum altitude 11:25:06 18° 168° (SSE) 1,336 3.1 -16.7°
Drops below altitude 10° 11:27:54 10° 125° (SE) 1,761 4.6 -16.1°
Sets 11:30:41 0° 105° (ESE) 2,650 6.2 -15.6°
